CW1187 Weather Reports


Display with metric or nautical units.
time (UTC)temp
F
wind
direction
speed
MPH
gust
MPH
rain 1hr
in
rain 24hr
in
rain mn
in
humidity
%
barometer
mb
20260505100036 55 153 4.0 12.0 0.02 0.42 0.41 91 1006.0
20260505095521 55 184 5.0 11.0 0.02 0.42 0.41 91 1006.2
20260505095020 55 155 5.0 11.0 0.03 0.42 0.41 91 1006.2
20260505094540 55 129 4.0 12.0 0.03 0.42 0.41 90 1006.8
20260505094020 55 159 5.0 12.0 0.04 0.42 0.41 90 1007.1
20260505093520 55 136 4.0 10.0 0.04 0.41 0.40 90 1007.4
20260505093043 55 154 4.0 10.0 0.05 0.41 0.40 90 1007.7
20260505092521 55 148 3.0 9.0 0.05 0.41 0.40 90 1007.8
20260505092021 55 152 3.0 9.0 0.07 0.41 0.40 90 1007.8
20260505091540 55 183 4.0 9.0 0.10 0.40 0.39 90 1007.8
20260505091020 55 148 4.0 9.0 0.12 0.40 0.39 90 1007.6
20260505090521 55 161 2.0 5.0 0.14 0.40 0.39 90 1008.2
20260505090051 55 284 0.0 2.0 0.15 0.40 0.39 90 1008.7
20260505085521 55 309 0.0 2.0 0.17 0.40 0.39 90 1008.9
20260505085021 55 0 0.0 2.0 0.18 0.39 0.38 89 1008.9
20260505084537 55 0 0.0 2.0 0.19 0.39 0.38 90 1008.9
20260505084020 55 324 0.0 3.0 0.20 0.38 0.37 90 1009.0
20260505083521 55 324 0.0 3.0 0.21 0.37 0.36 89 1008.9
20260505083040 56 324 1.0 3.0 0.21 0.36 0.35 89 1009.1
20260505082521 56 333 0.0 5.0 0.22 0.36 0.35 89 1009.0
20260505082021 56 338 0.0 5.0 0.20 0.34 0.33 89 1008.6
20260505081544 56 331 2.0 5.0 0.17 0.30 0.29 89 1008.4
20260505081022 56 0 2.0 6.0 0.15 0.27 0.26 89 1008.5
20260505080520 56 343 2.0 6.0 0.14 0.26 0.25 89 1008.2
20260505080039 56 346 3.0 6.0 0.14 0.25 0.24 88 1007.9
20260505075524 56 348 1.0 3.0 0.13 0.23 0.22 88 1007.6
20260505075020 56 352 1.0 3.0 0.12 0.21 0.20 88 1007.3
20260505074538 56 355 1.0 9.0 0.13 0.19 0.18 88 1007.3
20260505074020 56 355 1.0 9.0 0.13 0.18 0.17 87 1007.2
20260505073520 57 348 4.0 9.0 0.11 0.15 0.14 87 1007.3
20260505073038 57 343 5.0 9.0 0.12 0.15 0.14 87 1007.5
20260505072518 57 343 2.0 4.0 0.13 0.14 0.13 86 1006.8
20260505072019 57 346 0.0 3.0 0.13 0.14 0.13 86 1006.2
20260505071533 58 346 1.0 3.0 0.12 0.13 0.12 85 1006.4
20260505071022 58 345 1.0 3.0 0.11 0.12 0.11 85 1006.8
20260505070523 58 320 1.0 3.0 0.11 0.12 0.11 85 1006.7
20260505070044 58 309 1.0 5.0 0.10 0.11 0.10 84 1007.0
20260505065520 58 305 2.0 8.0 0.09 0.10 0.09 83 1007.1
20260505065018 59 296 3.0 12.0 0.08 0.09 0.08 81 1007.2
20260505064538 60 319 5.0 12.0 0.05 0.06 0.05 79 1007.4
20260505064017 60 286 3.0 6.0 0.04 0.05 0.04 77 1007.3
20260505063519 61 278 2.0 4.0 0.03 0.04 0.03 75 1007.5
20260505063040 61 300 1.0 4.0 0.02 0.03 0.02 74 1007.4
20260505062523 62 293 2.0 4.0 0.00 0.01 0.00 72 1007.3
20260505062020 62 0 1.0 4.0 0.00 0.01 0.00 70 1006.9
20260505061540 63 282 1.0 5.0 0.00 0.01 0.00 70 1006.8
20260505061023 63 279 2.0 5.0 0.00 0.01 0.00 68 1006.7
20260505060521 63 273 3.0 7.0 0.00 0.01 0.00 66 1006.7
20260505060035 63 256 2.0 8.0 0.00 0.01 0.00 64 1006.5
20260505055518 64 252 3.0 9.0 0.00 0.01 0.00 63 1006.4
20260505055020 64 242 4.0 9.0 0.00 0.01 0.00 62 1006.4
20260505054539 64 232 3.0 8.0 0.00 0.01 0.00 61 1006.1
20260505054021 64 240 3.0 9.0 0.00 0.01 0.00 61 1005.9
20260505053519 64 229 3.0 9.0 0.00 0.01 0.00 60 1005.7
20260505053045 65 248 4.0 9.0 0.00 0.01 0.00 60 1005.6
20260505052517 65 231 4.0 9.0 0.00 0.01 0.00 59 1005.6
20260505052017 65 212 4.0 16.0 0.00 0.01 0.00 59 1005.4
20260505051538 65 236 4.0 16.0 0.00 0.01 0.00 58 1005.0
20260505051018 65 206 6.0 15.0 0.00 0.01 0.00 58 1004.8
20260505050522 66 249 5.0 15.0 0.00 0.01 0.00 58 1004.7
20260505041539 67 168 6.0 17.0 0.00 0.01 0.00 57 1004.4
20260505041017 67 190 5.0 20.0 0.00 0.01 0.00 56 1004.5
20260505040517 67 219 7.0 20.0 0.00 0.01 0.00 56 1004.6
20260505040040 67 201 6.0 19.0 0.00 0.01 0.00 56 1004.6
20260505035517 67 200 6.0 16.0 0.00 0.01 0.01 57 1004.7
20260505035018 67 202 6.0 16.0 0.00 0.01 0.01 57 1004.8
20260505034538 67 228 6.0 15.0 0.00 0.01 0.01 56 1004.9
20260505034018 67 206 5.0 16.0 0.00 0.01 0.01 56 1005.0
20260505033520 67 222 6.0 16.0 0.00 0.01 0.01 56 1005.0
20260505033102 67 221 3.0 14.0 0.00 0.01 0.01 57 1005.1
20260505032518 68 251 4.0 17.0 0.00 0.01 0.01 56 1005.1
20260505032017 68 192 6.0 17.0 0.00 0.01 0.01 56 1005.1
20260505031537 68 202 6.0 17.0 0.00 0.01 0.01 56 1005.2
20260505031018 68 179 7.0 16.0 0.00 0.01 0.01 56 1005.2
20260505030520 68 211 7.0 13.0 0.00 0.01 0.01 56 1005.3
20260505030039 67 209 6.0 15.0 0.00 0.01 0.01 57 1005.3
20260505025520 67 224 4.0 15.0 0.00 0.01 0.01 57 1005.2
20260505025019 67 204 5.0 14.0 0.00 0.01 0.01 57 1005.1
20260505024538 67 229 5.0 14.0 0.00 0.01 0.01 57 1005.3
20260505024017 67 144 4.0 13.0 0.00 0.01 0.01 57 1005.2
20260505023517 67 198 4.0 12.0 0.00 0.01 0.01 57 1005.1
20260505023042 67 190 6.0 12.0 0.00 0.01 0.01 57 1005.2
20260505022522 67 246 4.0 12.0 0.00 0.01 0.01 57 1005.1
20260505022017 67 215 4.0 12.0 0.00 0.01 0.01 56 1005.1
20260505021534 67 214 5.0 11.0 0.00 0.01 0.01 56 1005.0
20260505021022 67 252 3.0 10.0 0.00 0.01 0.01 56 1005.0
20260505020520 67 192 4.0 10.0 0.00 0.01 0.01 56 1004.9
20260505020032 68 205 4.0 10.0 0.00 0.01 0.01 56 1004.9
20260505015520 68 198 3.0 8.0 0.00 0.01 0.01 56 1004.8
20260505015019 68 204 3.0 9.0 0.00 0.01 0.01 55 1004.7
20260505014539 68 211 3.0 10.0 0.00 0.01 0.01 55 1004.6
20260505014019 68 213 4.0 11.0 0.00 0.01 0.01 55 1004.5
20260505013519 69 198 3.0 11.0 0.00 0.01 0.01 54 1004.4
20260505013039 69 195 4.0 8.0 0.00 0.01 0.01 54 1004.2
20260505012518 69 154 4.0 13.0 0.00 0.01 0.01 53 1004.2
20260505012018 69 190 3.0 13.0 0.00 0.01 0.01 53 1004.1
20260505011535 69 126 4.0 14.0 0.00 0.01 0.01 53 1004.0
20260505011021 70 180 5.0 14.0 0.00 0.01 0.01 52 1003.9
20260505010521 70 216 5.0 11.0 0.00 0.01 0.01 52 1003.9
20260505010043 70 190 5.0 13.0 0.00 0.01 0.01 52 1003.8
20260505005521 70 192 4.0 15.0 0.00 0.01 0.01 52 1003.7
20260505005021 70 209 7.0 15.0 0.00 0.01 0.01 51 1003.8
20260505004546 70 192 5.0 15.0 0.00 0.01 0.01 51 1003.8
20260505004021 71 213 5.0 15.0 0.00 0.01 0.01 51 1003.8
20260505003521 71 195 5.0 15.0 0.00 0.01 0.01 51 1003.9
20260505003039 71 184 7.0 16.0 0.00 0.01 0.01 50 1003.9
20260505002521 71 200 5.0 19.0 0.00 0.01 0.01 50 1003.9
20260505002021 71 211 7.0 19.0 0.00 0.01 0.01 50 1003.9
20260505001539 71 165 6.0 18.0 0.00 0.01 0.01 50 1003.9
20260505001022 71 190 7.0 17.0 0.00 0.01 0.01 50 1004.0
20260505000524 71 218 5.0 13.0 0.00 0.01 0.01 50 1004.1
20260505000037 72 209 4.0 16.0 0.00 0.01 0.01 50 1004.0
20260504235521 72 200 4.0 17.0 0.00 0.01 0.01 49 1004.1
20260504235021 72 221 6.0 17.0 0.00 0.01 0.01 49 1004.1
20260504234550 72 199 5.0 16.0 0.00 0.01 0.01 48 1004.2
20260504234021 72 200 4.0 19.0 0.00 0.01 0.01 48 1004.3
20260504233523 72 207 5.0 19.0 0.00 0.01 0.01 47 1004.4
20260504233039 73 215 6.0 19.0 0.00 0.01 0.01 47 1004.5
20260504232521 73 225 5.0 19.0 0.00 0.01 0.01 47 1004.5
20260504232020 73 225 7.0 19.0 0.00 0.01 0.01 47 1004.5
20260504231550 73 222 8.0 19.0 0.00 0.01 0.01 46 1004.6
20260504231020 73 203 8.0 21.0 0.00 0.01 0.01 46 1004.7
20260504230521 73 238 7.0 21.0 0.00 0.01 0.01 45 1004.6
20260504230039 73 221 7.0 18.0 0.00 0.01 0.01 45 1004.8
20260504225525 73 209 7.0 20.0 0.00 0.01 0.01 50 1004.8
20260504225020 73 219 7.0 20.0 0.00 0.01 0.01 45 1004.9
20260504224538 73 219 7.0 15.0 0.00 0.01 0.01 45 1005.0
20260504224020 73 150 6.0 15.0 0.00 0.01 0.01 46 1005.0
20260504223520 73 226 4.0 13.0 0.00 0.01 0.01 49 1005.0
20260504223041 73 261 4.0 13.0 0.00 0.01 0.01 50 1005.0
20260504222520 72 236 5.0 13.0 0.00 0.01 0.01 56 1005.0
20260504222021 72 205 6.0 11.0 0.00 0.01 0.01 51 1005.1
20260504221539 72 194 6.0 16.0 0.00 0.01 0.01 51 1005.1
20260504221022 72 163 7.0 16.0 0.00 0.01 0.01 51 1005.3
20260504220521 72 180 6.0 13.0 0.00 0.01 0.01 52 1005.3
20260504220040 72 161 6.0 18.0 0.00 0.01 0.01 51 1005.4
20260504215522 72 132 7.0 18.0 0.00 0.01 0.01 50 1005.3
20260504215020 73 161 5.0 14.0 0.00 0.01 0.01 55 1005.3
20260504214541 73 190 6.0 14.0 0.00 0.01 0.01 49 1005.4
20260504214022 73 198 5.0 12.0 0.00 0.01 0.01 49 1005.3
20260504213524 73 215 5.0 12.0 0.00 0.01 0.01 49 1005.4
20260504213035 73 215 4.0 11.0 0.00 0.01 0.01 49 1005.4
20260504212520 72 188 4.0 11.0 0.00 0.01 0.01 50 1005.5
20260504212020 72 160 4.0 11.0 0.00 0.01 0.01 53 1005.6
20260504211533 71 192 4.0 11.0 0.00 0.01 0.01 59 1005.6
20260504211021 70 188 3.0 12.0 0.00 0.01 0.01 58 1005.6
20260504210522 69 175 4.0 13.0 0.00 0.01 0.01 57 1005.7
20260504210052 69 188 5.0 13.0 0.00 0.01 0.01 57 1005.6
20260504205524 69 174 5.0 11.0 0.00 0.01 0.01 56 1005.5
20260504205019 69 196 5.0 9.0 0.00 0.01 0.01 58 1006.4
20260504204618 68 240 2.0 8.0 0.00 0.01 0.01 61 1006.4
20260504204021 68 194 2.0 8.0 0.00 0.01 0.01 66 1006.4
20260504203520 67 238 4.0 16.0 0.00 0.01 0.01 62 1006.9
20260504203038 67 225 5.0 16.0 0.00 0.01 0.01 63 1006.9
20260504202521 66 232 6.0 16.0 0.00 0.01 0.01 62 1006.8
20260504202021 66 230 4.0 11.0 0.01 0.01 0.01 65 1006.8
20260504201538 66 159 4.0 13.0 0.01 0.01 0.01 65 1006.8
20260504201020 66 211 5.0 13.0 0.01 0.01 0.01 66 1006.8
20260504200520 65 196 2.0 14.0 0.01 0.01 0.01 73 1006.8
20260504200039 65 207 4.0 14.0 0.01 0.01 0.01 68 1006.9
20260504195521 64 219 5.0 14.0 0.01 0.01 0.01 70 1006.9
20260504195020 64 215 4.0 11.0 0.01 0.01 0.01 72 1006.9
20260504194548 63 200 3.0 9.0 0.01 0.01 0.01 73 1007.0
20260504194025 63 227 3.0 9.0 0.01 0.01 0.01 72 1007.1
20260504193522 62 232 4.0 9.0 0.01 0.01 0.01 73 1007.1
20260504193039 63 225 4.0 9.0 0.01 0.01 0.01 78 1007.1
20260504192524 63 290 0.0 13.0 0.01 0.01 0.01 72 1006.6
20260504192021 64 296 7.0 15.0 0.00 0.00 0.00 70 1007.5
20260504191540 64 254 6.0 16.0 0.00 0.00 0.00 69 1008.1
20260504191017 65 263 10.0 18.0 0.00 0.00 0.00 67 1007.8
20260504190517 66 245 11.0 26.0 0.00 0.00 0.00 66 1007.9
20260504190045 67 234 9.0 26.0 0.00 0.00 0.00 64 1007.4
20260504185521 67 236 11.0 26.0 0.00 0.00 0.00 65 1007.7
20260504185018 68 201 7.0 13.0 0.00 0.00 0.00 62 1007.7
20260504184537 67 224 6.0 16.0 0.00 0.00 0.00 63 1007.7
20260504184021 67 228 7.0 17.0 0.00 0.00 0.00 63 1007.7
20260504183516 68 219 6.0 17.0 0.00 0.00 0.00 64 1007.4
20260504183039 68 227 8.0 17.0 0.00 0.00 0.00 64 1007.6
20260504182521 67 185 6.0 16.0 0.00 0.00 0.00 65 1007.5
20260504182016 67 220 6.0 16.0 0.00 0.00 0.00 66 1007.4
20260504181540 66 204 5.0 13.0 0.00 0.00 0.00 67 1007.5
20260504181020 66 244 4.0 19.0 0.00 0.00 0.00 68 1007.4
20260504180520 65 200 4.0 19.0 0.00 0.00 0.00 69 1007.4
20260504180040 65 227 7.0 19.0 0.00 0.00 0.00 69 1007.2
20260504175517 65 227 3.0 12.0 0.00 0.00 0.00 69 1007.3
20260504175017 65 183 7.0 12.0 0.00 0.00 0.00 69 1007.2
20260504174539 65 155 4.0 10.0 0.00 0.00 0.00 75 1007.4
20260504174017 66 252 4.0 11.0 0.00 0.00 0.00 68 1007.3
20260504173520 66 232 6.0 18.0 0.00 0.00 0.00 65 1007.7
20260504173032 67 210 5.0 18.0 0.00 0.00 0.00 62 1007.4
20260504172517 68 199 8.0 18.0 0.00 0.00 0.00 61 1007.4
20260504172020 68 211 6.0 19.0 0.00 0.00 0.00 62 1007.8
20260504171541 68 211 8.0 19.0 0.00 0.00 0.00 60 1007.8
20260504171020 68 231 7.0 19.0 0.00 0.00 0.00 60 1007.6
20260504170518 69 227 5.0 12.0 0.00 0.00 0.00 60 1007.4
20260504151023 66 227 4.0 11.0 0.00 0.00 0.00 61 1008.1
20260504150519 66 223 4.0 10.0 0.00 0.00 0.00 61 1008.0
20260504141022 62 222 4.0 9.0 0.00 0.00 0.00 66 1008.3
20260504140521 62 215 3.0 10.0 0.00 0.00 0.00 67 1008.2
20260504130521 58 154 6.0 13.0 0.00 0.00 0.00 69 1008.1
20260504110519 54 183 3.0 9.0 0.00 0.00 0.00 67 1008.2
20260504100517 54 223 4.0 13.0 0.00 0.00 0.00 65 1008.4